User: anonymous   Login
Location: Mentone
(34.5413°N, 85.5351°W)
Time: 17:13:49
(UTC-06:00)
Language:

UOSAT-12 - Orbit

View from above orbital plane
View from above orbital plane
View from above satellite
View from above satellite

Ground track
Ground track

The orbit data is extracted from the following two-line orbital elements,

1 25693U 99021A   15029.24628892  .00000313  00000-0  59412-4 0  7332
2 25693 064.5563 286.2225 0048220 259.0746 236.5686 14.80285262851370
Epoch (UTC): 29 January 2015 05:54:39
Eccentricity: 0.0048220
inclination: 64.5563°
perigee height: 594 km
apogee height: 662 km
right ascension of ascending node: 286.2225°
argument of perigee: 259.0746°
revolutions per day: 14.80285262
mean anomaly at epoch: 236.5686°
orbit number at epoch: 85137

The dashed part of the orbit path shows where the satellite is in the earth's shadow,  

DLR